EagleSat-2

operational
NORAD ID: 66909 Int'l Des: NNA 1998-067 Owner: ERAU Country: US
LEOCIRCULAR

关于 EagleSat-2

正在加载描述...

实时位置

正在加载3D地球...

即将过境

高度历史

Altitude vs Time

uPlot chart will show altitude changes over time

两行轨道根数

1 66909U 98067XV 25347.69190829 .00073490 00000-0 12038-2 0 9994
2 66909 51.6299 137.6482 0004352 233.7111 126.3477 15.51801579 1763
Epoch: Dec 13, 2025 • Age: 16 hours

当前状态

高度 419.3 km
速度 7.66 km/s
星下点 48.32°N, 12.26°W
发射日期 Sep 14, 2025
运行时间 0.2 years
类型 other

技术详情

分类 Payload
质量 5.00 kg
干质量 5.00 kg
总质量 5.00 kg
长度 0.30 m
直径 0.10 m
跨度 0.30 m
形状 Box
制造商 ERAU
平台类型 Cubesat 3U
阶段状态 In Orbit
所有者/国家 ERAU/US

大型星座

Loading constellations...